Probability
0 0 0 0 0 0 0 0 0 0 0 0 0 0 0 0 0 0 0 0 0 0 0 0 0 0 0 0 0 0 0 0 0 0 0 0 0 0 0 0 0 0 0 0
0 0 0 0 0 0 0 0 0 0 0 0 0 0 0 0 0 0 0 0 0 0 0 0 0 0 0 0 0 0 0 0 0 0 0 0 0 0 0 0 0 0 0 0
0 0 0 0 0 0 0 0 0 0 0 0 0 0 0 0 0 0 0 0 0 0 0 0 0 0 0 0 0 0 0 0 0 0 0 0 0 0 0 0 0 0 0 0
0 0 0 0 0 0 0 0 0 0 0 0 0 0 0 0 0 0 0 0 0 0 0 0 0 0 0 0 0 0 0 0 0 0 0 0 0 0 0 0 0 0 0 0
0 0 0 0 0 0 0 0 0 0 0 0 0 0 0 0 0 0 0 0 0 0 0 0 0 0 0 0 0 0 0 0 0 0 0 0 0 0 0 0 0 0 0 0
0 0 0 0 0 0 0 0 0 0 0 0 0 0 0 0 0 0 0 0 0 0 0 0 0 0 0 0 0 0 0 0 0 0 0 0 0 0 0 0 0 0 0 0
0 0 0 0 0 0 0 0 0 0 0 0 0 0 0 0 0 0 0 0 0 0 0 0 0 0 0 0 0 0 0 0 0 0 0 0 0 0 0 0 0 0 0 0
0 0 0 0 0 0 0 0 0 0 0 0 0 0 0 0 0 0 0 0 0 0 0 0 0 0 0 0 0 0 0 0 0 0 0 0 0 0 0 0 0 0 0 0
0 0 0 0 0 0 0 0 0 0 0 0 0 0 0 0 0 0 0 0 0 0 0 0 0 0 0 0 0 0 0 0 0 0 0 0 0 0 0 0 0 0 0 0
0 0 0 0 0 0 0 0 0 0 0 0 0 0 0 0 0 0 0 0 0 0 0 0 0 0 0 0 0 0 0 0 0 0 0 0 0 0 0 0 0 0 0 0
0 0 0 0 0 0 0 0 0 0 0 0 0 0 0 0 0 0 0 0 0 0 0 0 0 0 0 0 0 0 0 0 0 0 0 0 0 0 0 0 0 0 0 0
0 0 0 0 0 0 0 0 0 0 0 0 0 0 0 0 0 0 0 0 0 0 0 0 0 0 0 0 0 0 0 0 0 0 0 0 0 0 0 0 0 0 0 0
0 0 0 0 0 0 0 0 0 0 0 0 0 0 0 0 0 0 0 0 0 0 0 0 0 0 0 0 0 0 0 0 0 0 0 0 0 0 0 0 0 0 0 0
0 0 0 0 0 0 0 0 0 0 0 0 0 0 0 0 0 0 0 0 0 0 0 0 0 0 0 0 0 0 0 0 0 0 0 0 0 0 0 0 0 0 0 0
0 0 0 0 0 0 0 0 0 0 0 0 0 0 0 0 0 0 0 0 0 0 0 0 0 0 0 0 0 0 0 0 0 0 0 0 0 0 0 0 0 0 0 0
0 0 0 0 0 0 0 0 0 0 0 0 0 0 0 0 0 0 0 0 0 0 0 0 0 0 0 0 0 0 0 0 0 0 0 0 0 0 0 0 0 0 0 0
0 0 0 0 0 0 0 0 0 0 0 0 0 0 0 0 0 0 0 0 0 0 0 0 0 0 0 0 0 0 0 0 0 0 0 0 0 0 0 0 0 0 0 0
0 0 0 0 0 0 0 0 0 0 0 0 0 0 0 0 0 0 0 0 0 0 0 0 0 0 0 0 0 0 0 0 0 0 0 0 0 0 0 0 0 0 0 0
0 0 0 0 0 0 0 0 0 0 0 0 0 0 0 0 0 0 0 0 0 0 0 0 0 0 0 0 0 0 0 0 0 0 0 0 0 0 0 0 0 0 0 0
0 0 0 0 0 0 0 0 0 0 0 0 0 0 0 0 0 0 0 0 0 0 0 0 0 0 0 0 0 0 0 0 0 0 0 0 0 0 0 0 0 0 0 0
0 0 0 0 0 0 0 0 0 0 0 0 0 0 0 0 0 0 0 0 0 0 0 0 0 0 0 0 0 0 0 0 0 0 0 0 0 0 0 0 0 0 0 0
0 0 0 0 0 0 0 0 0 0 0 0 0 0 0 0 0 0 0 0 0 0 0 0 0 0 0 0 0 0 0 0 0 0 0 0 0 0 0 0 0 0 0 0
0 0 0 0 0 0 0 0 0 0 0 0 0 0 0 0 0 0 0 0 0 0 0 0 0 0 0 0 0 0 0 0 0 0 0 0 0 0 0 0 0 0 0 0
0 0 0 0 0 0 0 0 0 0 0 0 0 0 0 0 0 0 0 0 0 0 0 0 0 0 0 0 0 0 0 0 0 0 0 0 0 0 0 0 0 0 0 0
0 0 0 0 0 0 0 0 0 0 0 0 0 0 0 0 0 0 0 0 0 0 0 0 0 0 0 0 0 0 0 0 0 0 0 0 0 0 0 0 0 0 0 0
0 0 0 0 0 0 0 0 0 0 0 0 0 0 0 0 0 0 0 0 0 0 0 0 0 0 0 0 0 0 0 0 0 0 0 0 0 0 0 0 0 0 0 0
0 0 0 0 0 0 0 0 0 0 0 0 0 0 0 0 0 0 0 0 0 0 0 0 0 0 0 0 0 0 0 0 0 0 0 0 0 0 0 0 0 0 0 0
Wind_Speed
5 4 3 4 5 8 7 8 8 8 8 10 9 11 11 9 8 8 8 9 10 10 9 8 8 7 7 7 6 7 7 6 6 5 4 3 3 3 3 3 4 3 3 4
2 3 3 3 6 7 7 6 7 5 9 9 5 5 7 9 11 11 11 12 11 10 10 10 10 9 8 7 7 7 7 7 5 4 4 4 4 3 3 4 4 3 4 5
2 1 1 5 7 8 6 6 8 9 10 2 3 9 12 13 13 14 14 13 13 13 12 12 11 10 10 9 7 7 7 6 6 5 5 4 4 3 4 4 4 4 5 5
2 1 5 9 3 4 5 6 7 7 7 6 8 7 7 9 13 13 12 12 12 11 10 9 8 8 8 7 8 8 7 6 6 5 5 4 4 4 4 3 4 4 5 5
4 3 6 7 3 4 4 5 6 6 6 4 1 2 2 6 10 12 13 12 12 11 10 9 9 9 9 8 7 7 7 7 6 6 6 5 4 5 4 3 4 4 5 5
4 3 6 8 2 2 3 5 4 5 4 2 5 3 6 5 8 8 7 7 8 8 8 9 8 9 10 9 8 9 8 8 6 6 6 6 6 5 3 3 4 5 6 6
4 4 8 5 1 4 4 7 2 3 3 5 6 5 3 3 5 6 6 7 8 9 9 9 10 10 10 9 10 10 7 6 6 6 6 6 4 4 3 4 4 4 6 6
4 4 8 2 3 6 7 3 1 2 3 4 3 2 0 3 4 6 7 7 8 8 7 6 9 10 10 10 9 7 6 6 6 5 5 4 4 4 3 3 4 5 5 7
8 8 5 3 5 4 3 3 3 2 3 3 3 2 1 2 3 5 6 7 7 8 8 7 8 10 11 9 7 7 6 6 5 4 4 4 4 4 3 3 4 5 5 6
4 8 6 5 5 4 4 4 4 4 3 3 3 3 2 3 3 4 5 6 7 8 8 7 7 8 8 6 7 7 7 6 4 4 4 4 3 4 4 4 5 5 5 6
5 7 6 5 3 3 3 3 3 2 2 3 3 2 3 3 4 4 4 4 6 7 8 7 7 6 5 6 7 7 6 5 4 4 4 4 4 5 6 6 7 6 6 6
6 5 4 5 3 1 1 1 2 1 0 0 3 3 2 3 3 4 5 5 5 5 5 5 6 5 5 6 7 6 5 4 4 4 3 3 4 4 8 9 11 12 12 10
5 3 3 4 3 2 1 1 2 2 2 2 1 2 4 3 3 4 5 6 7 6 6 5 5 4 4 5 6 6 5 5 4 4 4 4 4 4 5 6 8 11 12 12
3 1 1 2 2 3 3 4 5 5 4 3 3 4 5 5 5 6 5 5 5 6 5 5 4 3 3 5 6 5 5 5 4 4 4 4 4 4 4 5 6 5 6 9
2 2 2 1 4 5 5 6 7 6 6 6 6 5 5 6 5 4 4 6 6 6 4 4 3 2 2 4 4 4 3 3 3 3 3 3 4 4 4 5 6 6 6 6
3 4 4 4 5 5 6 6 6 5 5 5 5 5 4 5 6 5 5 5 6 5 4 3 2 1 2 4 4 3 3 4 3 2 3 3 3 4 4 5 5 6 6 6
3 3 4 4 4 5 5 5 5 5 5 4 4 4 6 7 7 6 5 4 5 4 4 3 2 1 2 3 3 2 2 2 3 2 3 3 3 4 4 4 5 5 6 7
3 4 5 5 5 6 6 6 6 6 4 3 4 5 6 7 5 4 4 4 5 5 3 1 1 1 1 1 2 1 1 1 1 2 3 3 3 4 4 4 5 6 6 6
7 8 8 7 6 6 5 4 4 4 4 3 5 5 4 4 4 3 4 5 5 3 1 1 2 2 2 1 1 1 1 1 1 2 2 3 4 4 4 5 5 5 6 6
7 7 8 8 7 7 5 4 4 3 3 3 4 5 5 4 3 4 4 3 1 1 1 1 2 2 1 1 1 0 0 1 2 2 3 3 4 4 4 4 5 5 5 6
6 6 7 6 6 6 5 4 3 3 3 3 4 4 3 2 2 3 4 2 1 1 1 1 1 0 0 1 1 0 1 1 2 2 3 3 4 4 4 5 5 5 5 6
5 5 6 5 5 5 4 4 4 4 4 4 3 3 4 3 2 2 1 1 1 1 1 1 0 1 1 1 0 1 1 2 2 2 3 3 3 4 4 5 5 5 6 6
3 4 4 4 3 3 4 4 4 3 3 3 2 2 2 1 1 2 0 1 0 1 1 0 1 2 2 1 1 1 2 3 3 3 3 3 4 4 5 6 5 5 6 6
3 3 3 3 3 3 4 4 3 3 3 2 2 1 1 1 1 1 1 1 0 1 1 1 3 3 2 1 1 2 2 3 3 3 3 3 4 4 5 5 6 6 6 7
2 3 3 3 3 2 1 2 3 3 4 3 3 3 2 1 0 1 1 1 2 1 1 2 2 2 1 1 2 2 3 3 3 3 3 3 4 4 4 5 5 5 5 5
2 2 2 1 1 1 1 1 1 2 2 2 3 3 2 2 1 1 1 2 2 2 2 2 2 2 2 2 2 3 3 3 4 3 4 4 4 4 4 4 6 5 5 5
3 2 2 2 2 2 1 1 0 1 1 0 1 2 2 2 2 2 2 2 1 2 2 2 2 2 2 2 2 3 3 3 3 3 3 3 4 4 4 5 4 4 4 4
Wind_Direction
231 227 182 203 200 179 187 188 189 226 229 246 222 205 201 193 181 175 180 183 185 185 185 180 178 180 179 178 175 171 171 181 197 197 194 200 211 223 233 239 245 249 257 264
242 222 203 235 234 208 211 203 216 242 257 249 231 183 183 182 178 186 193 193 191 187 182 184 185 182 177 179 177 168 178 192 191 184 191 204 215 223 235 249 254 253 254 260
230 289 49 262 230 201 205 204 188 214 239 248 199 195 196 190 187 194 196 192 189 189 189 189 186 177 179 181 168 170 184 190 187 187 196 209 215 218 234 245 248 256 259 259
140 99 229 246 244 194 205 228 212 232 253 235 231 225 205 187 188 196 194 192 192 189 187 184 174 169 166 159 166 176 183 190 190 187 199 206 209 227 238 240 244 253 261 262
135 195 268 288 241 176 187 257 219 229 262 266 220 94 266 206 194 197 192 189 188 184 179 170 168 165 156 161 169 177 188 195 194 190 196 201 215 232 234 235 247 250 258 262
138 174 234 250 228 149 121 276 239 206 233 203 134 158 243 205 189 193 184 176 170 160 153 162 168 157 157 169 176 192 197 198 193 189 193 204 217 225 223 226 245 258 265 263
166 212 256 256 190 124 169 244 276 199 207 186 188 208 247 174 180 176 169 162 154 152 164 174 162 157 167 176 194 200 190 185 185 188 197 207 214 217 224 235 253 262 270 273
157 198 253 234 142 184 219 256 275 234 212 209 232 286 164 155 163 156 152 149 153 159 167 160 157 162 174 194 199 180 172 178 187 193 202 204 207 224 226 230 253 266 273 282
190 216 240 217 221 236 205 230 244 232 235 213 216 228 181 147 149 155 156 156 158 162 159 159 167 171 185 198 173 162 168 183 193 198 205 205 210 223 228 225 239 258 262 271
261 267 258 252 248 243 213 222 243 240 232 197 206 197 160 144 144 156 163 161 157 154 161 172 177 183 191 171 157 162 177 190 192 197 214 219 221 220 223 230 238 250 256 262
260 279 305 296 266 250 226 225 245 253 221 195 188 201 168 157 164 167 157 151 156 162 167 172 168 178 173 160 158 168 181 190 196 205 214 227 232 229 227 231 224 231 247 248
234 243 231 271 297 257 212 233 218 200 358 114 160 191 159 143 152 151 146 135 135 140 146 150 153 168 169 165 163 168 184 197 204 210 217 227 244 265 246 242 250 242 242 244
240 259 236 280 336 12 62 58 80 85 84 64 63 131 128 122 123 124 123 130 143 148 144 143 150 167 174 168 166 174 189 200 204 212 221 228 235 248 273 280 262 256 252 250
243 202 336 337 344 29 63 71 75 65 55 57 64 80 97 101 102 113 126 139 139 132 133 141 152 178 183 169 170 184 194 207 209 218 225 231 238 243 249 264 283 287 271 259
359 106 141 60 57 57 59 72 73 59 51 50 56 71 86 96 98 103 111 115 113 110 116 127 145 191 168 161 167 183 194 211 215 222 228 236 244 249 254 257 262 272 284 287
25 63 76 69 62 59 59 66 74 62 55 55 60 64 82 98 97 94 95 108 116 124 129 131 157 188 160 160 164 181 206 224 220 221 235 244 249 254 262 265 269 274 278 281
68 66 84 84 74 67 62 57 62 62 57 58 61 71 82 84 81 79 78 87 102 110 118 127 146 145 148 155 165 185 207 236 238 232 242 249 254 259 264 266 270 276 277 275
89 96 100 101 94 79 62 56 56 57 58 65 80 82 85 91 97 98 95 90 86 76 67 92 134 123 114 126 149 163 181 213 230 246 257 260 263 263 265 268 272 276 282 288
69 71 70 70 73 76 67 57 58 60 55 62 80 84 87 89 95 101 103 97 94 83 1 8 95 92 76 72 122 152 191 249 272 271 268 272 275 273 273 276 279 283 288 291
75 77 75 67 59 60 57 50 56 56 53 72 84 80 72 66 79 94 94 88 106 187 227 98 94 88 69 25 62 138 241 264 274 280 279 276 277 281 280 281 284 286 289 290
70 74 74 71 66 59 56 55 60 52 45 67 91 102 101 80 81 98 99 82 328 342 64 74 74 44 345 342 24 155 262 272 274 278 283 285 285 285 286 287 289 289 289 291
54 65 70 70 67 56 40 38 46 56 56 59 72 90 92 81 72 68 68 170 258 26 71 59 3 307 318 329 289 268 274 278 278 279 279 280 280 284 287 291 291 291 290 290
53 61 64 64 63 53 42 36 34 50 61 65 72 88 102 112 129 123 319 286 277 8 32 307 303 317 330 329 285 280 283 284 283 281 280 280 280 283 287 291 291 292 293 294
42 46 46 45 50 47 35 16 21 40 49 43 40 50 94 83 7 304 225 251 256 328 320 296 304 314 327 297 279 282 282 281 280 282 283 285 287 289 290 292 295 297 298 300
40 48 45 46 47 28 1 7 29 37 42 32 20 17 17 44 211 298 314 308 303 320 320 314 314 315 319 293 283 282 283 281 280 280 282 289 293 294 294 295 298 300 301 303
40 50 47 43 30 358 19 41 31 9 29 26 4 356 359 360 357 344 342 340 344 338 323 313 317 318 313 302 295 294 294 296 295 291 293 295 295 294 294 298 303 302 302 304
34 37 43 30 11 13 34 57 50 340 335 342 327 331 341 347 348 344 340 330 323 318 313 308 305 299 293 291 294 298 300 300 298 298 300 301 299 298 300 302 303 305 307 311